Lid_Strength_Index
0 0 0 0 0 0 0 0 0 0 1 1 1 0 0 0 1 8 9 5 1 -2 1 6 7 7 7 8 7 8 12 14 13 12 12 9 10 9 8 9 8 9 8 8 7
1 1 1 1 1 1 1 1 1 1 1 1 1 1 1 1 8 9 4 -0 -1 -1 6 7 8 8 10 10 9 11 12 12 10 10 10 11 10 9 9 10 11 10 9 8 8
0 1 1 1 1 1 1 1 1 1 1 1 1 1 1 2 10 10 1 -0 -0 2 6 6 8 9 10 10 10 10 12 10 10 9 9 10 11 9 11 11 10 11 9 8 7
0 0 1 1 1 1 1 1 1 1 1 2 1 1 1 6 14 9 0 0 1 5 6 8 10 10 11 12 11 12 11 10 9 8 9 9 10 11 10 10 9 9 8 8 8
1 0 1 1 1 1 1 1 1 1 2 2 2 2 6 11 11 7 2 4 6 6 8 9 10 11 12 11 11 12 11 9 9 9 9 9 10 11 11 9 8 8 8 9 8
1 1 1 1 2 2 2 2 3 2 2 2 3 2 10 13 8 8 7 7 6 7 8 8 9 10 11 11 12 11 11 10 9 9 9 11 12 11 11 9 9 9 9 9 9
1 1 2 2 2 2 2 2 3 2 2 3 2 7 10 11 9 8 7 8 7 7 8 7 7 10 11 12 11 11 12 11 10 10 11 11 13 13 11 10 11 10 10 10 10
1 2 2 2 2 3 3 3 3 3 2 2 2 10 12 8 9 9 8 8 8 7 7 7 7 10 11 11 13 14 13 14 12 10 11 10 14 13 11 12 12 11 10 10 10
2 2 2 2 3 3 4 3 4 4 3 3 9 12 14 6 10 9 8 9 8 8 8 9 11 13 13 16 17 17 18 16 14 12 12 12 14 13 12 12 14 13 11 11 10
2 2 2 2 3 4 5 4 5 6 8 9 10 14 12 12 10 9 8 8 9 10 10 12 14 16 16 17 20 18 18 17 17 14 13 14 14 13 12 13 14 14 12 12 12
2 2 3 3 3 4 8 11 12 13 11 13 13 14 12 10 9 10 9 10 10 12 14 14 16 17 17 16 17 17 18 18 16 13 14 15 15 14 13 14 15 15 14 13 13
2 3 3 3 4 5 9 12 12 12 14 11 11 11 10 10 13 11 10 12 13 15 14 15 17 16 15 15 16 16 17 18 16 14 14 15 15 14 14 16 15 15 15 15 14
2 3 3 4 5 8 10 11 9 10 15 13 11 12 12 11 13 12 11 12 14 15 16 17 16 14 15 16 17 17 17 17 17 15 15 16 16 15 14 15 15 15 15 15 14
3 3 3 5 7 10 11 9 9 9 16 14 13 12 12 12 14 10 10 12 14 16 16 16 15 16 16 17 16 18 16 16 16 16 19 16 19 17 15 15 16 17 16 16 15
3 3 4 6 10 11 10 9 9 11 21 14 13 10 12 13 13 12 11 12 15 15 16 17 17 17 17 17 16 17 15 15 15 17 17 17 18 17 16 16 16 17 17 16 15
3 3 4 7 10 10 9 9 11 15 22 16 14 14 14 14 13 13 13 12 13 15 16 16 14 15 16 15 15 14 15 15 16 17 19 18 18 17 18 16 17 17 17 17 16
3 4 6 8 10 9 9 12 15 19 15 16 16 15 16 16 15 15 15 16 17 18 19 17 16 15 15 16 15 15 17 20 20 20 20 17 18 16 16 15 16 17 17 17 17
4 5 7 8 9 9 11 13 18 18 18 15 16 16 17 16 16 16 17 18 16 17 19 20 19 16 15 16 16 16 17 20 22 22 20 17 19 16 15 16 16 17 17 17 17
5 9 9 9 9 10 12 17 18 18 16 16 16 17 17 16 17 16 19 17 17 17 19 20 19 16 16 15 15 17 18 16 19 19 21 19 17 17 17 17 18 18 17 18 18
9 10 8 9 10 10 14 16 18 16 16 16 18 18 19 18 16 17 19 17 16 15 16 18 20 17 15 15 15 15 15 18 18 21 22 20 19 18 17 17 17 18 18 18 18
10 10 7 9 9 12 15 17 16 15 15 16 18 19 19 18 18 19 19 17 15 15 16 18 19 17 17 17 17 16 17 17 17 18 20 22 19 14 14 14 16 17 17 18 18
10 12 7 8 11 15 15 16 13 15 15 16 17 18 19 18 18 18 18 17 15 15 16 17 19 20 18 16 16 16 17 17 18 19 19 20 19 14 14 14 14 16 17 18 18
11 11 8 9 14 14 14 14 15 15 16 16 17 16 17 18 18 16 16 13 13 14 15 15 19 20 17 17 16 17 17 16 16 16 19 19 18 15 15 15 15 16 17 18 18
11 13 11 13 15 15 15 15 16 15 15 15 16 16 17 16 16 16 15 13 12 14 9 12 17 18 18 16 16 17 16 16 16 19 19 18 16 14 14 15 16 17 17 18 18
12 13 14 14 14 15 15 16 16 15 15 16 16 16 16 17 16 17 15 14 11 11 14 14 17 18 17 17 17 17 17 17 18 17 19 17 17 14 14 14 14 15 18 18 18
11 12 14 15 15 16 14 16 16 14 15 15 16 15 16 16 13 13 14 14 13 15 15 14 16 17 18 16 16 17 16 16 17 17 17 17 17 14 15 15 16 17 18 18 18
12 13 10 13 16 15 15 15 14 15 13 13 14 14 15 14 13 12 13 12 12 13 15 15 16 17 19 18 18 19 16 16 16 16 16 18 15 17 16 16 17 18 18 18 18